This demonstration page uses our WeatherBlox Daily Observations layout. Learn more.

39.29038, -76.61219

Hourly Observations for December 9, 2017

Temp ( °F °C ) Dew Point ( °F °C ) Humidity (%) Winds ( mph kmh ) Pressure ( in mb ) Visibility ( mi km ) Precip ( " mm )
12:54 am 00:54 undefined 39 3.9 19 -7.2 45 45 undefined N/A 29.97 1015 N/A 0 0
1:54 am 01:54 undefined 39 3.9 18 -7.8 43 43 undefined N/A 29.94 1014 N/A 0 0
2:54 am 02:54 undefined 39 3.9 18 -7.8 43 43 undefined N/A 29.97 1015 N/A 0 0
3:54 am 03:54 undefined 39 3.9 18 -7.8 43 43 undefined N/A 29.94 1014 N/A 0 0
4:54 am 04:54 undefined 39 3.9 17 -8.3 41 41 undefined N/A 29.91 1013 N/A 0 0
5:54 am 05:54 undefined 39 3.9 17 -8.3 41 41 undefined N/A 29.94 1014 N/A 0 0
6:54 am 06:54 undefined 38 3.3 18 -7.8 44 44 undefined N/A 29.91 1013 N/A 0 0
7:54 am 07:54 undefined 38 3.3 19 -7.2 46 46 undefined N/A 29.91 1013 N/A 0 0
8:54 am 08:54 undefined 36 2.2 23 -5 59 59 undefined N/A 29.91 1013 N/A 0 0
9:54 am 09:54 undefined 33 0.6 28 -2.2 82 82 undefined N/A 29.91 1013 N/A 0.02 0.508
10:54 am 10:54 undefined 32 0 29 -1.7 88 88 undefined N/A 29.88 1012 N/A 0.02 0.508
11:54 am 11:54 undefined 32 0 28 -2.2 85 85 undefined N/A 29.85 1011 N/A 0.03 0.762
12:54 pm 12:54 undefined 32 0 29 -1.7 88 88 undefined N/A 29.8 1009 N/A 0.01 0.254
1:54 pm 13:54 undefined 32 0 29 -1.7 88 88 undefined N/A 29.8 1009 N/A 0.04 1.016
2:54 pm 14:54 undefined 32 0 29 -1.7 88 88 undefined N/A 29.77 1008 N/A 0.03 0.762
3:54 pm 15:54 undefined 32 0 28 -2.2 85 85 undefined N/A 29.77 1008 N/A 0.02 0.508
4:54 pm 16:54 undefined 32 0 28 -2.2 85 85 undefined N/A 29.77 1008 N/A 0.02 0.508
5:54 pm 17:54 undefined 32 0 28 -2.2 85 85 undefined N/A 29.77 1008 N/A 0.02 0.508
6:54 pm 18:54 undefined 32 0 28 -2.2 85 85 undefined N/A 29.8 1009 N/A 0 0
7:54 pm 19:54 undefined 32 0 28 -2.2 85 85 undefined N/A 29.8 1009 N/A 0.01 0.254
8:54 pm 20:54 undefined 32 0 28 -2.2 85 85 undefined N/A 29.83 1010 N/A 0 0
9:54 pm 21:54 undefined 32 0 27 -2.8 82 82 undefined N/A 29.83 1010 N/A 0 0
10:54 pm 22:54 undefined 31 -0.6 27 -2.8 85 85 undefined N/A 29.83 1010 N/A 0 0
11:54 pm 23:54 undefined 31 -0.6 26 -3.3 82 82 undefined N/A 29.83 1010 N/A 0 0

Powered by AerisWeather